GW3762 Weather Reports


Display with metric or nautical units.
time (UTC)temp
F
wind
direction
speed
MPH
gust
MPH
rain 1hr
in
rain 24hr
in
rain mn
in
humidity
%
barometer
mb
20260506212958 56 243 3.0 5.0 0.01 0.04 0.04 94 1007.2
20260506212458 56 244 1.0 5.0 0.01 0.04 0.04 94 1007.1
20260506211959 56 236 3.0 4.0 0.01 0.04 0.04 94 1007.1
20260506210959 56 240 2.0 5.0 0.01 0.04 0.04 94 1007.1
20260506210500 56 234 4.0 5.0 0.01 0.04 0.04 94 1007.1
20260506210001 56 241 4.0 7.0 0.01 0.04 0.04 94 1007.2
20260506205500 56 241 1.0 7.0 0.01 0.04 0.04 94 1007.3
20260506204959 56 205 0.0 5.0 0.01 0.04 0.04 94 1007.3
20260506204500 56 239 2.0 5.0 0.01 0.04 0.04 94 1007.4
20260506203959 56 225 2.0 6.0 0.00 0.03 0.03 94 1007.5
20260506203459 56 223 2.0 7.0 0.00 0.03 0.03 94 1007.6
20260506202959 56 234 1.0 7.0 0.00 0.03 0.03 94 1007.7
20260506202457 56 229 2.0 6.0 0.00 0.03 0.03 94 1007.7
20260506201957 56 229 2.0 6.0 0.00 0.03 0.03 94 1007.8
20260506201457 56 239 1.0 5.0 0.00 0.03 0.03 94 1007.9
20260506200957 56 236 2.0 5.0 0.00 0.03 0.03 94 1007.8
20260506200458 56 240 3.0 5.0 0.00 0.03 0.03 94 1007.7
20260506195458 56 238 1.0 6.0 0.00 0.03 0.03 94 1007.8
20260506194958 57 246 2.0 5.0 0.00 0.03 0.03 94 1007.8
20260506194457 57 232 2.0 4.0 0.00 0.03 0.03 94 1007.8
20260506193457 57 224 2.0 9.0 0.00 0.03 0.03 94 1007.9
20260506192957 57 252 2.0 9.0 0.00 0.03 0.03 94 1008.1
20260506192457 57 227 3.0 7.0 0.00 0.03 0.03 94 1008.1
20260506191957 57 234 4.0 7.0 0.00 0.03 0.03 94 1008.1
20260506191457 57 227 2.0 4.0 0.00 0.03 0.03 94 1008.2
20260506190958 57 246 2.0 4.0 0.01 0.03 0.03 94 1008.3
20260506190458 57 249 0.0 4.0 0.01 0.03 0.03 94 1008.2
20260506185457 57 226 2.0 5.0 0.01 0.03 0.03 94 1008.4
20260506184957 57 234 3.0 5.0 0.01 0.03 0.03 94 1008.5
20260506184457 57 241 4.0 7.0 0.02 0.03 0.03 93 1008.5
20260506183957 56 233 1.0 8.0 0.02 0.03 0.03 93 1008.6
20260506183457 56 219 3.0 8.0 0.02 0.03 0.03 93 1008.6
20260506182957 56 250 4.0 8.0 0.02 0.03 0.03 93 1008.6
20260506182457 56 237 4.0 8.0 0.03 0.03 0.03 93 1008.8
20260506181957 56 223 2.0 8.0 0.03 0.03 0.03 93 1008.8
20260506181458 56 213 4.0 8.0 0.03 0.03 0.03 93 1008.9
20260506180957 56 227 3.0 8.0 0.02 0.02 0.02 93 1009.0
20260506180457 56 222 4.0 8.0 0.02 0.02 0.02 93 1008.8
20260506175959 56 225 1.0 8.0 0.02 0.02 0.02 93 1008.9
20260506174457 56 213 1.0 3.0 0.01 0.01 0.01 92 1008.7
20260506173956 56 159 1.0 3.0 0.01 0.01 0.01 92 1009.0
20260506172457 57 215 0.0 5.0 0.00 0.00 0.00 91 1009.3
20260506171958 57 248 2.0 5.0 0.00 0.00 0.00 91 1009.5
20260506171457 57 165 0.0 4.0 0.00 0.00 0.00 90 1009.6
20260506170457 58 245 3.0 7.0 0.00 0.00 0.00 89 1009.9
20260506165959 58 223 1.0 7.0 0.00 0.00 0.00 89 1010.1
20260506165456 58 224 4.0 5.0 0.00 0.00 0.00 89 1010.1
20260506164957 58 229 3.0 5.0 0.00 0.00 0.00 88 1010.0
20260506164457 58 236 2.0 5.0 0.00 0.00 0.00 88 1010.1
20260506163957 58 215 2.0 5.0 0.00 0.00 0.00 87 1010.1
20260506163458 59 237 4.0 5.0 0.00 0.00 0.00 86 1010.2
20260506162957 59 257 4.0 7.0 0.00 0.00 0.00 86 1010.1
20260506162457 59 250 1.0 7.0 0.00 0.00 0.00 86 1010.0
20260506161957 59 223 4.0 5.0 0.00 0.00 0.00 85 1010.1
20260506161457 60 215 2.0 5.0 0.00 0.00 0.00 85 1010.1
20260506160957 60 190 1.0 4.0 0.00 0.00 0.00 84 1010.1
20260506160457 61 224 2.0 5.0 0.00 0.00 0.00 84 1010.2
20260506155959 61 213 2.0 6.0 0.00 0.00 0.00 83 1010.2
20260506155457 61 178 1.0 8.0 0.00 0.00 0.00 83 1010.4
20260506154957 61 238 6.0 8.0 0.00 0.00 0.00 83 1010.5
20260506153958 62 228 2.0 8.0 0.00 0.00 0.00 83 1010.4
20260506153457 61 229 2.0 8.0 0.00 0.00 0.00 84 1010.5
20260506152957 61 219 2.0 8.0 0.00 0.00 0.00 84 1010.8
20260506152458 61 227 3.0 7.0 0.00 0.00 0.00 84 1010.7
20260506151957 61 234 2.0 7.0 0.00 0.00 0.00 83 1010.4
20260506150956 61 240 2.0 6.0 0.00 0.00 0.00 84 1010.3
20260506150458 61 235 2.0 5.0 0.00 0.00 0.00 84 1010.4
20260506145956 61 222 3.0 5.0 0.00 0.00 0.00 83 1010.4
20260506144956 61 232 4.0 7.0 0.00 0.00 0.00 82 1010.3
20260506144456 62 177 1.0 6.0 0.00 0.00 0.00 81 1010.3
20260506143956 62 242 4.0 7.0 0.00 0.00 0.00 82 1010.4
20260506143457 62 246 2.0 7.0 0.00 0.00 0.00 82 1010.5
20260506142455 63 263 7.0 7.0 0.00 0.00 0.00 80 1010.6
20260506141956 63 200 4.0 5.0 0.00 0.00 0.00 80 1010.5
20260506141456 64 215 0.0 5.0 0.00 0.00 0.00 80 1010.6
20260506140956 64 227 4.0 5.0 0.00 0.00 0.00 82 1010.5
20260506135959 63 234 3.0 7.0 0.00 0.00 0.00 82 1010.6
20260506134457 62 228 3.0 8.0 0.00 0.00 0.00 84 1010.7
20260506133957 61 138 1.0 10.0 0.00 0.00 0.00 84 1010.6
20260506133457 61 238 6.0 10.0 0.00 0.00 0.00 84 1010.6
20260506131457 60 238 4.0 8.0 0.00 0.00 0.00 86 1010.4
20260506130957 60 219 3.0 5.0 0.00 0.00 0.00 87 1010.4
20260506130456 60 228 2.0 8.0 0.00 0.00 0.00 86 1010.4
20260506125458 60 263 4.0 10.0 0.00 0.00 0.00 86 1010.5
20260506124957 60 246 2.0 10.0 0.00 0.00 0.00 87 1010.5
20260506124457 60 217 3.0 10.0 0.00 0.00 0.00 87 1010.6
20260506123956 59 223 2.0 11.0 0.00 0.00 0.00 87 1010.6
20260506123457 59 246 4.0 9.0 0.00 0.00 0.00 87 1010.7
20260506122957 59 254 3.0 10.0 0.00 0.00 0.00 87 1010.9
20260506122000 59 234 5.0 10.0 0.00 0.00 0.00 88 1011.1
20260506121458 59 229 5.0 10.0 0.00 0.00 0.00 88 1011.0
20260506120956 59 236 4.0 10.0 0.00 0.00 0.00 88 1010.9
20260506120457 58 229 3.0 9.0 0.00 0.00 0.00 89 1010.8
20260506115959 58 235 3.0 9.0 0.00 0.00 0.00 89 1010.8
20260506115457 58 215 1.0 7.0 0.00 0.00 0.00 90 1010.8
20260506114957 58 263 4.0 7.0 0.00 0.00 0.00 91 1010.8
20260506114457 57 236 1.0 7.0 0.00 0.00 0.00 91 1010.8
20260506113957 57 248 4.0 8.0 0.00 0.00 0.00 91 1010.7
20260506113457 56 231 1.0 8.0 0.00 0.00 0.00 92 1010.7
20260506112957 56 232 3.0 7.0 0.00 0.00 0.00 92 1010.8
20260506111458 55 225 3.0 5.0 0.00 0.00 0.00 92 1010.8
20260506110957 55 228 4.0 5.0 0.00 0.00 0.00 92 1010.9
20260506110457 55 247 2.0 7.0 0.00 0.00 0.00 92 1011.0
20260506105959 55 227 2.0 8.0 0.00 0.00 0.00 92 1011.0
20260506105457 55 263 7.0 8.0 0.00 0.00 0.00 93 1011.0
20260506104958 55 234 2.0 7.0 0.00 0.00 0.00 93 1010.9
20260506104456 54 232 3.0 5.0 0.00 0.00 0.00 93 1010.8
20260506103958 54 221 4.0 4.0 0.00 0.00 0.00 93 1010.6
20260506103501 54 231 0.0 4.0 0.00 0.00 0.00 93 1010.7
20260506102957 54 225 3.0 4.0 0.00 0.00 0.00 93 1010.9
20260506100957 54 224 1.0 3.0 0.00 0.00 0.00 92 1010.9
20260506095956 54 230 2.0 4.0 0.00 0.00 0.00 92 1010.7
20260506095456 54 220 3.0 4.0 0.00 0.00 0.00 92 1010.8
20260506094957 54 203 3.0 4.0 0.00 0.00 0.00 92 1010.8
20260506094456 54 183 2.0 4.0 0.00 0.00 0.00 92 1010.6
20260506093957 54 232 3.0 4.0 0.00 0.00 0.00 92 1010.6
20260506093456 54 217 1.0 4.0 0.00 0.00 0.00 92 1010.6
20260506092957 54 200 2.0 4.0 0.00 0.00 0.00 92 1010.6
20260506092457 54 229 1.0 4.0 0.00 0.00 0.00 92 1010.6
20260506091456 54 221 2.0 4.0 0.00 0.00 0.00 92 1010.8
20260506090957 54 229 1.0 4.0 0.00 0.00 0.00 92 1010.8
20260506090456 54 221 4.0 4.0 0.00 0.00 0.00 92 1010.8
20260506085959 54 233 1.0 4.0 0.00 0.00 0.00 92 1010.7
20260506085457 54 224 3.0 4.0 0.00 0.00 0.00 91 1010.8
20260506084957 54 241 3.0 5.0 0.00 0.00 0.00 91 1010.8
20260506084457 54 232 4.0 7.0 0.00 0.00 0.00 91 1010.9
20260506083957 54 215 1.0 9.0 0.00 0.00 0.00 91 1010.9
20260506082457 54 201 2.0 8.0 0.00 0.00 0.00 91 1011.0
20260506081957 54 238 3.0 8.0 0.00 0.00 0.00 91 1011.0
20260506081456 54 225 3.0 5.0 0.00 0.00 0.00 91 1010.9
20260506080958 54 235 2.0 5.0 0.00 0.00 0.00 91 1010.9
20260506080456 54 226 0.0 4.0 0.00 0.00 0.00 91 1010.8
20260506073455 55 263 6.0 6.0 0.00 0.00 0.00 90 1011.1
20260506072456 55 235 2.0 5.0 0.00 0.00 0.00 90 1011.1
20260506071956 55 251 4.0 5.0 0.00 0.00 0.00 90 1011.2
20260506070955 55 232 3.0 5.0 0.00 0.00 0.00 89 1011.2
20260506062456 56 223 2.0 5.0 0.00 0.00 0.00 87 1011.0
20260506061957 56 246 5.0 5.0 0.00 0.00 0.00 87 1011.0
20260506061456 56 239 3.0 8.0 0.00 0.00 0.00 87 1011.0
20260506060456 57 236 1.0 8.0 0.00 0.00 0.00 86 1011.1
20260506050956 58 233 4.0 6.0 0.00 0.00 0.00 84 1011.4
20260506050456 58 240 4.0 6.0 0.00 0.00 0.00 83 1011.5
20260506044458 59 239 4.0 5.0 0.00 0.00 0.00 83 1011.5
20260506043959 59 226 4.0 7.0 0.00 0.00 0.00 83 1011.6
20260506042959 59 231 4.0 8.0 0.00 0.00 0.00 82 1011.5
20260506042458 59 232 1.0 9.0 0.00 0.00 0.00 82 1011.6
20260506041959 59 256 7.0 9.0 0.00 0.00 0.00 82 1011.5
20260506041459 59 233 4.0 8.0 0.00 0.00 0.00 81 1011.5
20260506040958 59 236 4.0 9.0 0.00 0.00 0.00 81 1011.6
20260506040458 59 238 4.0 9.0 0.00 0.00 0.00 81 1011.6
20260506040004 59 227 2.0 8.0 0.00 0.00 0.00 80 1011.6
20260506035458 59 256 5.0 8.0 0.00 0.00 0.00 80 1011.6
20260506034959 59 240 4.0 9.0 0.00 0.00 0.00 79 1011.5
20260506034459 60 237 6.0 9.0 0.00 0.00 0.00 79 1011.5
20260506033958 60 258 8.0 9.0 0.00 0.00 0.00 79 1011.5
20260506033459 60 250 7.0 9.0 0.00 0.00 0.00 78 1011.5
20260506032959 60 232 6.0 9.0 0.00 0.00 0.00 78 1011.5
20260506032459 60 236 5.0 13.0 0.00 0.00 0.00 78 1011.5
20260506031958 60 229 6.0 13.0 0.00 0.00 0.00 78 1011.4
20260506031459 60 217 6.0 12.0 0.00 0.00 0.00 77 1011.5
20260506030958 60 255 8.0 12.0 0.00 0.00 0.00 77 1011.5
20260506030459 60 226 4.0 9.0 0.00 0.00 0.00 77 1011.5
20260506030000 60 242 8.0 13.0 0.00 0.00 0.00 77 1011.6
20260506025458 60 222 7.0 14.0 0.00 0.00 0.00 77 1011.5
20260506024958 60 230 5.0 14.0 0.00 0.00 0.00 77 1011.6
20260506023958 60 223 4.0 13.0 0.00 0.00 0.00 76 1011.6
20260506023459 60 215 7.0 11.0 0.00 0.00 0.00 76 1011.5
20260506022959 60 233 6.0 11.0 0.00 0.00 0.00 76 1011.5
20260506022459 60 197 5.0 10.0 0.00 0.00 0.00 76 1011.5
20260506021959 60 225 5.0 11.0 0.00 0.00 0.00 76 1011.4
20260506021500 60 239 5.0 11.0 0.00 0.00 0.00 76 1011.5
20260506020958 60 226 4.0 7.0 0.00 0.00 0.00 76 1011.5
20260506020458 60 230 5.0 8.0 0.00 0.00 0.00 75 1011.4
20260506015959 60 224 5.0 9.0 0.00 0.00 0.00 75 1011.3
20260506015457 60 251 4.0 9.0 0.00 0.00 0.00 75 1011.3
20260506014957 60 220 3.0 9.0 0.00 0.00 0.00 75 1011.3
20260506014457 60 229 5.0 9.0 0.00 0.00 0.00 75 1011.2
20260506013958 60 217 6.0 8.0 0.00 0.00 0.00 75 1011.2
20260506012957 60 220 3.0 9.0 0.00 0.00 0.00 74 1011.1
20260506011958 61 234 2.0 8.0 0.00 0.00 0.00 74 1010.9
20260506011457 61 238 3.0 12.0 0.00 0.00 0.00 74 1010.9
20260506010958 61 236 6.0 12.0 0.00 0.00 0.00 74 1010.7
20260506010457 60 221 4.0 8.0 0.00 0.00 0.00 74 1010.7
20260506005458 61 225 3.0 9.0 0.00 0.00 0.00 73 1010.6
20260506004958 61 218 1.0 9.0 0.00 0.00 0.00 73 1010.5
20260506004459 61 251 5.0 10.0 0.00 0.00 0.00 72 1010.4
20260506003459 61 230 5.0 11.0 0.00 0.00 0.00 72 1010.3
20260506002958 61 229 5.0 12.0 0.00 0.00 0.00 71 1010.2
20260506002459 61 242 6.0 8.0 0.00 0.00 0.00 71 1010.2
20260506001959 61 242 9.0 9.0 0.00 0.00 0.00 71 1010.2
20260506001458 62 222 3.0 9.0 0.00 0.00 0.00 70 1010.2
20260506000959 62 236 7.0 9.0 0.00 0.00 0.00 70 1010.1
20260506000458 62 226 7.0 10.0 0.00 0.00 0.00 70 1010.1
20260505235458 62 229 6.0 11.0 0.00 0.00 0.00 69 1009.9
20260505235001 63 226 3.0 12.0 0.00 0.00 0.00 69 1009.8
20260505234457 63 250 10.0 12.0 0.00 0.00 0.00 68 1009.8
20260505233958 63 222 4.0 12.0 0.00 0.00 0.00 69 1009.8
20260505233458 63 231 5.0 11.0 0.00 0.00 0.00 69 1009.8
20260505232958 63 239 6.0 10.0 0.00 0.00 0.00 68 1009.7
20260505232459 64 229 3.0 8.0 0.00 0.00 0.00 68 1009.7
20260505231957 64 221 4.0 12.0 0.00 0.00 0.00 68 1009.5
20260505230957 64 235 3.0 12.0 0.00 0.00 0.00 68 1009.4
20260505230500 65 234 4.0 12.0 0.00 0.00 0.00 67 1009.4
20260505225957 65 226 2.0 13.0 0.00 0.00 0.00 67 1009.2
20260505224958 65 251 5.0 12.0 0.00 0.00 0.00 67 1009.3
20260505223957 66 242 6.0 14.0 0.00 0.00 0.00 67 1009.3
20260505222958 66 233 4.0 12.0 0.00 0.00 0.00 67 1009.3
20260505222457 66 242 2.0 12.0 0.00 0.00 0.00 67 1009.4
20260505221958 66 234 5.0 10.0 0.00 0.00 0.00 66 1009.4
20260505221457 66 238 4.0 12.0 0.00 0.00 0.00 66 1009.4
20260505221001 66 238 5.0 12.0 0.00 0.00 0.00 66 1009.4
20260505220458 66 233 2.0 12.0 0.00 0.00 0.00 66 1009.4
20260505215957 66 256 2.0 8.0 0.00 0.00 0.00 67 1009.4
20260505215457 67 245 3.0 11.0 0.00 0.00 0.00 67 1009.3
20260505214957 67 240 3.0 11.0 0.00 0.00 0.00 65 1009.2
20260505214458 67 224 3.0 8.0 0.00 0.00 0.00 66 1009.2
20260505213457 67 190 1.0 8.0 0.00 0.00 0.00 64 1009.2